Location: Estes Par
(40.3770°N, 105.5210°W)
Time: 03:15:21
(UTC-06:00)

ISS - Pass Details

Date: 12 October 2017
Orbit: 401 x 408 km, 51.6° (Epoch: 19 October)

Event Time Altitude Azimuth Distance (km) Brightness Sun altitude
Rises 19:05:43 0° 312° (NW) 2,319 0.8 -8.3°
Reaches altitude 10° 19:07:58 10° 324° (NW) 1,459 -0.5 -8.7°
Maximum altitude 19:10:52 29° 27° (NNE) 776 -2.7 -9.3°
Enters shadow 19:13:07 14° 83° (E) 1,229 -2.1 -9.7°
